DW0152 Weather Reports


Display with metric or nautical units.
time (UTC)temp
F
wind
direction
speed
MPH
gust
MPH
rain 1hr
in
rain 24hr
in
rain mn
in
humidity
%
barometer
mb
20260507121031 60 0 0.0 2.0 0.00 0.00 0.00 55 1016.0
20260507120534 61 0 0.0 2.0 0.00 0.00 0.00 56 1016.0
20260507120042 61 109 0.0 2.0 0.00 0.00 0.00 56 1016.0
20260507115536 61 0 0.0 1.0 0.00 0.00 0.00 56 1016.0
20260507115036 61 0 0.0 1.0 0.00 0.00 0.00 56 1015.9
20260507114605 61 0 0.0 1.0 0.00 0.00 0.00 55 1016.0
20260507114034 61 0 0.0 1.0 0.00 0.00 0.00 55 1016.0
20260507113536 61 109 0.0 0.0 0.00 0.00 0.00 55 1016.0
20260507113104 61 0 0.0 1.0 0.00 0.00 0.00 53 1016.1
20260507112532 61 0 0.0 3.0 0.00 0.00 0.00 53 1016.0
20260507112036 62 0 0.0 3.0 0.00 0.00 0.00 52 1016.0
20260507111544 62 109 0.0 3.0 0.00 0.00 0.00 54 1016.1
20260507111032 62 0 0.0 3.0 0.00 0.00 0.00 54 1016.1
20260507110531 62 0 0.0 3.0 0.00 0.00 0.00 55 1016.2
20260507110043 62 30 0.0 3.0 0.00 0.00 0.00 55 1016.1
20260507105531 61 0 0.0 3.0 0.00 0.00 0.00 54 1016.1
20260507105031 61 0 0.0 3.0 0.00 0.00 0.00 54 1016.1
20260507104544 61 0 0.0 3.0 0.00 0.00 0.00 55 1016.3
20260507104036 60 0 0.0 3.0 0.00 0.00 0.00 57 1016.1
20260507103531 60 0 0.0 2.0 0.00 0.00 0.00 57 1016.2
20260507103050 59 0 0.0 2.0 0.00 0.00 0.00 59 1016.2
20260507102537 59 0 0.0 2.0 0.00 0.00 0.00 60 1016.2
20260507102035 59 0 0.0 2.0 0.00 0.00 0.00 60 1016.3
20260507101547 59 0 0.0 2.0 0.00 0.00 0.00 60 1016.3
20260507101034 58 0 0.0 2.0 0.00 0.00 0.00 60 1016.2
20260507100533 59 0 0.0 2.0 0.00 0.00 0.00 61 1016.2
20260507100041 59 0 0.0 2.0 0.00 0.00 0.00 63 1016.2
20260507095531 59 0 0.0 1.0 0.00 0.00 0.00 66 1016.1
20260507095031 58 38 0.0 2.0 0.00 0.00 0.00 65 1016.1
20260507094544 58 0 0.0 2.0 0.00 0.00 0.00 64 1016.2
20260507094031 59 0 0.0 2.0 0.00 0.00 0.00 66 1016.0
20260507093531 58 0 0.0 1.0 0.00 0.00 0.00 67 1016.1
20260507093042 58 0 0.0 1.0 0.00 0.00 0.00 66 1016.1
20260507092535 58 0 0.0 1.0 0.00 0.00 0.00 67 1016.0
20260507092032 57 0 0.0 1.0 0.00 0.00 0.00 69 1016.1
20260507091544 57 0 0.0 2.0 0.00 0.00 0.00 70 1016.1
20260507091034 56 0 0.0 2.0 0.00 0.00 0.00 69 1016.1
20260507090534 56 119 0.0 2.0 0.00 0.00 0.00 69 1016.1
20260507090049 56 0 0.0 2.0 0.00 0.00 0.00 70 1016.1
20260507085533 55 0 0.0 1.0 0.00 0.00 0.00 71 1016.1
20260507085033 55 0 0.0 1.0 0.00 0.00 0.00 71 1016.0
20260507084546 55 0 0.0 1.0 0.00 0.00 0.00 72 1015.9
20260507084033 55 0 0.0 1.0 0.00 0.00 0.00 73 1015.9
20260507083533 55 0 0.0 1.0 0.00 0.00 0.00 74 1016.0
20260507083047 55 336 0.0 1.0 0.00 0.00 0.00 76 1015.9
20260507082534 54 0 0.0 1.0 0.00 0.00 0.00 77 1016.0
20260507082034 54 0 0.0 1.0 0.00 0.00 0.00 78 1016.0
20260507081552 54 0 0.0 0.0 0.00 0.00 0.00 78 1015.9
20260507081033 54 0 0.0 0.0 0.00 0.00 0.00 79 1015.8
20260507080532 53 0 0.0 1.0 0.00 0.00 0.00 81 1015.9
20260507080052 53 0 0.0 1.0 0.00 0.00 0.00 81 1015.9
20260507075535 53 328 0.0 1.0 0.00 0.00 0.00 82 1015.9
20260507075034 53 0 0.0 1.0 0.00 0.00 0.00 83 1015.8
20260507074546 52 0 0.0 1.0 0.00 0.00 0.00 83 1015.7
20260507074037 52 0 0.0 1.0 0.00 0.00 0.00 84 1015.8
20260507073536 52 0 0.0 1.0 0.00 0.00 0.00 84 1015.7
20260507073043 52 0 0.0 1.0 0.00 0.00 0.00 85 1015.6
20260507072536 51 0 0.0 2.0 0.00 0.00 0.00 85 1015.7
20260507072036 51 0 0.0 2.0 0.00 0.00 0.00 85 1015.6
20260507071542 51 0 0.0 0.0 0.00 0.00 0.00 86 1015.7
20260507071035 50 0 0.0 0.0 0.00 0.00 0.00 86 1015.6
20260507070534 50 0 0.0 0.0 0.00 0.00 0.00 86 1015.5
20260507070046 50 0 0.0 0.0 0.00 0.00 0.00 87 1015.5
20260507065532 50 0 0.0 0.0 0.00 0.00 0.00 87 1015.6
20260507065033 50 0 0.0 0.0 0.00 0.00 0.00 87 1015.5
20260507064542 50 0 0.0 0.0 0.00 0.00 0.00 87 1015.5
20260507064032 50 0 0.0 0.0 0.00 0.00 0.00 87 1015.5
20260507063534 49 0 0.0 0.0 0.00 0.00 0.00 87 1015.5
20260507063047 49 0 0.0 0.0 0.00 0.00 0.00 87 1015.3
20260507062533 49 0 0.0 0.0 0.00 0.00 0.00 88 1015.4
20260507062033 49 0 0.0 0.0 0.00 0.00 0.00 88 1015.4
20260507061543 49 0 0.0 0.0 0.00 0.00 0.00 88 1015.3
20260507061036 49 0 0.0 0.0 0.00 0.00 0.00 88 1015.3
20260507060531 49 0 0.0 0.0 0.00 0.00 0.00 88 1015.1
20260507060050 49 0 0.0 0.0 0.00 0.00 0.00 88 1015.1
20260507055535 49 0 0.0 0.0 0.00 0.00 0.00 88 1015.1
20260507055031 49 0 0.0 0.0 0.00 0.00 0.00 88 1014.9
20260507054544 49 0 0.0 0.0 0.00 0.00 0.00 88 1015.0
20260507054035 49 0 0.0 0.0 0.00 0.00 0.00 88 1014.9
20260507053535 49 0 0.0 0.0 0.00 0.00 0.00 88 1014.9
20260507053041 49 0 0.0 0.0 0.00 0.00 0.00 88 1014.8
20260507052534 48 0 0.0 0.0 0.00 0.00 0.00 88 1014.8
20260507052032 48 0 0.0 0.0 0.00 0.00 0.00 88 1014.9
20260507051549 48 0 0.0 0.0 0.00 0.00 0.00 88 1014.7
20260507051031 48 0 0.0 0.0 0.00 0.00 0.00 88 1014.7
20260507050535 48 0 0.0 0.0 0.00 0.00 0.00 87 1014.6
20260507050047 48 0 0.0 0.0 0.00 0.00 0.00 87 1014.6
20260507045531 48 0 0.0 0.0 0.00 0.00 0.00 87 1014.6
20260507045033 48 0 0.0 0.0 0.00 0.00 0.00 87 1014.5
20260507044541 48 0 0.0 0.0 0.00 0.00 0.00 87 1014.4
20260507044031 48 0 0.0 0.0 0.00 0.00 0.00 87 1014.3
20260507043534 48 0 0.0 0.0 0.00 0.00 0.00 87 1014.2
20260507043059 48 0 0.0 0.0 0.00 0.00 0.00 87 1014.2
20260507042535 49 0 0.0 0.0 0.00 0.00 0.00 86 1014.3
20260507042032 49 0 0.0 0.0 0.00 0.00 0.00 86 1014.2
20260507041543 49 0 0.0 0.0 0.00 0.00 0.00 86 1014.2
20260507041031 49 0 0.0 0.0 0.00 0.00 0.00 86 1014.1
20260507040531 49 0 0.0 0.0 0.00 0.00 0.00 86 1014.1
20260507040043 49 0 0.0 0.0 0.00 0.00 0.00 86 1013.9
20260507035530 49 0 0.0 0.0 0.00 0.00 0.00 86 1014.0
20260507035032 49 0 0.0 0.0 0.00 0.00 0.00 86 1013.8
20260507034542 49 0 0.0 0.0 0.00 0.00 0.00 86 1013.9
20260507034032 49 0 0.0 0.0 0.00 0.00 0.00 85 1013.8
20260507033530 49 0 0.0 0.0 0.00 0.00 0.00 85 1013.8
20260507033041 49 0 0.0 0.0 0.00 0.00 0.00 85 1013.8
20260507032533 49 0 0.0 0.0 0.00 0.00 0.00 85 1013.7
20260507032031 49 0 0.0 0.0 0.00 0.00 0.00 85 1013.8
20260507031548 49 0 0.0 0.0 0.00 0.00 0.00 85 1013.8
20260507031031 49 0 0.0 0.0 0.00 0.00 0.00 85 1013.7
20260507030533 49 0 0.0 0.0 0.00 0.00 0.00 85 1013.8
20260507030046 49 0 0.0 0.0 0.00 0.00 0.00 84 1013.7
20260507025534 49 0 0.0 0.0 0.00 0.01 0.00 84 1013.6
20260507025037 49 0 0.0 0.0 0.00 0.01 0.00 84 1013.6
20260507024550 49 0 0.0 0.0 0.00 0.01 0.00 84 1013.5
20260507024034 49 0 0.0 0.0 0.00 0.01 0.00 84 1013.5
20260507023533 49 0 0.0 0.0 0.00 0.01 0.00 84 1013.6
20260507023048 49 0 0.0 0.0 0.00 0.01 0.00 84 1013.5
20260507022534 49 0 0.0 0.0 0.00 0.01 0.00 84 1013.6
20260507022038 49 0 0.0 0.0 0.00 0.01 0.00 84 1013.4
20260507021541 49 0 0.0 0.0 0.00 0.01 0.00 84 1013.4
20260507021033 49 0 0.0 0.0 0.00 0.01 0.00 83 1013.3
20260507020534 49 0 0.0 0.0 0.00 0.01 0.00 83 1013.4
20260507020050 49 0 0.0 0.0 0.00 0.01 0.00 83 1013.2
20260507015535 49 0 0.0 0.0 0.00 0.02 0.00 83 1013.2
20260507015033 49 0 0.0 0.0 0.00 0.02 0.00 82 1013.1
20260507014538 49 0 0.0 0.0 0.00 0.02 0.00 82 1013.1
20260507014033 49 0 0.0 0.0 0.00 0.02 0.00 82 1013.1
20260507013533 49 0 0.0 0.0 0.00 0.02 0.00 82 1013.3
20260507013042 49 0 0.0 0.0 0.00 0.02 0.00 82 1013.3
20260507012537 49 0 0.0 0.0 0.00 0.02 0.00 82 1013.2
20260507012033 49 0 0.0 0.0 0.00 0.02 0.00 82 1013.2
20260507011546 49 0 0.0 0.0 0.00 0.02 0.00 82 1013.2
20260507011032 49 0 0.0 0.0 0.00 0.02 0.00 82 1013.1
20260507010534 49 0 0.0 0.0 0.00 0.02 0.00 82 1013.2
20260507010044 49 0 0.0 0.0 0.00 0.02 0.00 82 1013.2
20260507005534 49 0 0.0 0.0 0.00 0.03 0.00 82 1013.2
20260507005033 49 0 0.0 0.0 0.00 0.03 0.00 82 1013.3
20260507004543 49 0 0.0 0.0 0.00 0.03 0.00 81 1013.2
20260507004035 49 0 0.0 0.0 0.00 0.03 0.00 81 1013.2
20260507003534 49 0 0.0 0.0 0.00 0.03 0.00 81 1013.2
20260507003042 49 0 0.0 0.0 0.00 0.03 0.00 81 1013.2
20260507002533 49 0 0.0 0.0 0.00 0.03 0.00 81 1013.1
20260507002033 49 0 0.0 0.0 0.00 0.03 0.00 81 1013.1
20260507001607 49 0 0.0 0.0 0.00 0.03 0.00 81 1013.2
20260507001035 49 0 0.0 0.0 0.00 0.03 0.00 81 1013.1
20260507000536 49 0 0.0 0.0 0.00 0.03 0.00 81 1013.2
20260507000044 49 0 0.0 0.0 0.00 0.03 0.00 81 1013.1
20260506235534 49 0 0.0 0.0 0.00 0.03 0.00 81 1013.1
20260506235034 49 0 0.0 0.0 0.00 0.03 0.00 81 1013.1
20260506234548 49 0 0.0 0.0 0.00 0.03 0.00 81 1013.0
20260506234031 49 0 0.0 0.0 0.00 0.03 0.00 81 1013.0
20260506233614 49 0 0.0 0.0 0.00 0.03 0.00 81 1013.0
20260506233047 49 0 0.0 0.0 0.00 0.03 0.00 81 1013.0
20260506232534 49 0 0.0 0.0 0.00 0.03 0.00 81 1013.0
20260506232035 50 0 0.0 0.0 0.00 0.03 0.00 81 1013.0
20260506231554 50 0 0.0 0.0 0.00 0.03 0.00 80 1013.0
20260506231033 50 0 0.0 0.0 0.00 0.03 0.00 80 1013.0
20260506230535 50 0 0.0 0.0 0.00 0.03 0.00 80 1012.7
20260506230055 50 0 0.0 0.0 0.00 0.03 0.00 80 1012.9
20260506225536 50 0 0.0 0.0 0.00 0.06 0.00 80 1012.8
20260506225036 50 0 0.0 0.0 0.00 0.06 0.00 80 1012.8
20260506224543 50 0 0.0 0.0 0.00 0.06 0.00 80 1012.8
20260506224035 50 0 0.0 0.0 0.00 0.06 0.00 80 1012.7
20260506223535 50 0 0.0 0.0 0.00 0.06 0.00 80 1012.6
20260506223049 50 0 0.0 0.0 0.00 0.06 0.00 79 1012.7
20260506222534 50 0 0.0 0.0 0.00 0.06 0.00 79 1012.5
20260506222033 50 0 0.0 0.0 0.00 0.06 0.00 79 1012.6
20260506221604 50 0 0.0 0.0 0.00 0.06 0.00 79 1012.5
20260506221035 50 0 0.0 0.0 0.00 0.06 0.00 79 1012.5
20260506220535 50 0 0.0 0.0 0.00 0.06 0.00 79 1012.6
20260506220040 50 0 0.0 0.0 0.00 0.06 0.00 79 1012.5
20260506215539 50 0 0.0 0.0 0.00 0.10 0.06 79 1012.4
20260506215035 50 0 0.0 0.0 0.00 0.10 0.06 78 1012.5
20260506214540 50 0 0.0 0.0 0.00 0.10 0.06 78 1012.4
20260506214034 50 0 0.0 0.0 0.00 0.10 0.06 78 1012.5
20260506213535 50 0 0.0 0.0 0.00 0.10 0.06 78 1012.5
20260506213043 50 0 0.0 0.0 0.00 0.10 0.06 77 1012.5
20260506212534 50 0 0.0 0.0 0.00 0.10 0.06 77 1012.4
20260506212036 50 0 0.0 0.0 0.00 0.10 0.06 77 1012.5
20260506211546 50 0 0.0 0.0 0.00 0.10 0.06 77 1012.4
20260506211036 50 0 0.0 0.0 0.00 0.10 0.06 77 1012.3
20260506210538 50 0 0.0 0.0 0.00 0.10 0.06 77 1012.2
20260506210054 50 0 0.0 0.0 0.00 0.10 0.06 77 1012.2
20260506205535 50 0 0.0 0.0 0.00 0.11 0.06 77 1012.3
20260506205036 50 0 0.0 0.0 0.00 0.11 0.06 77 1012.2
20260506204550 50 0 0.0 0.0 0.00 0.11 0.06 77 1012.0
20260506204035 50 0 0.0 0.0 0.00 0.11 0.06 77 1012.1
20260506203535 50 0 0.0 0.0 0.00 0.11 0.06 77 1012.0
20260506203045 50 0 0.0 0.0 0.00 0.11 0.06 77 1011.9
20260506202538 50 0 0.0 0.0 0.00 0.11 0.06 77 1011.9
20260506202034 50 0 0.0 0.0 0.00 0.11 0.06 77 1011.9
20260506201544 51 0 0.0 0.0 0.00 0.11 0.06 78 1011.8
20260506201035 51 0 0.0 0.0 0.00 0.11 0.06 78 1011.7
20260506200537 51 0 0.0 0.0 0.00 0.11 0.06 78 1011.8
20260506200042 51 0 0.0 0.0 0.00 0.11 0.06 77 1011.8
20260506195535 51 0 0.0 0.0 0.00 0.11 0.06 77 1011.7
20260506195034 51 0 0.0 0.0 0.00 0.11 0.06 77 1011.7
20260506194550 51 0 0.0 1.0 0.00 0.11 0.06 77 1011.7
20260506194035 51 0 0.0 1.0 0.00 0.11 0.06 77 1011.6
20260506193535 51 0 0.0 1.0 0.00 0.11 0.06 76 1011.7
20260506193045 51 0 0.0 2.0 0.00 0.11 0.06 76 1011.7
20260506192534 51 0 0.0 2.0 0.00 0.11 0.06 76 1011.6
20260506192036 51 0 0.0 1.0 0.00 0.11 0.06 75 1011.6
20260506191541 51 0 0.0 2.0 0.00 0.11 0.06 75 1011.5
20260506191034 51 0 0.0 2.0 0.00 0.11 0.06 75 1011.5
20260506190536 51 0 0.0 2.0 0.00 0.11 0.06 74 1011.3
20260506190049 51 41 0.0 2.0 0.00 0.11 0.06 74 1011.3
20260506185534 52 46 0.0 2.0 0.00 0.12 0.06 73 1011.1
20260506185034 52 0 0.0 2.0 0.00 0.12 0.06 73 1011.1
20260506184548 52 0 0.0 2.0 0.00 0.12 0.06 72 1011.1
20260506184035 52 0 0.0 2.0 0.00 0.12 0.06 72 1011.1
20260506183534 52 0 0.0 2.0 0.00 0.12 0.06 71 1011.0
20260506183055 53 0 0.0 2.0 0.00 0.12 0.06 70 1010.9
20260506182533 53 5 0.0 2.0 0.00 0.12 0.06 70 1011.0
20260506182037 53 0 0.0 2.0 0.00 0.12 0.06 69 1010.9
20260506181554 53 0 0.0 2.0 0.00 0.12 0.06 68 1010.8
20260506181037 53 0 0.0 2.0 0.00 0.12 0.06 68 1010.6
20260506180538 54 0 0.0 3.0 0.00 0.12 0.06 68 1010.6
20260506180043 54 0 0.0 3.0 0.00 0.12 0.06 67 1010.7
20260506175534 54 0 0.0 3.0 0.00 0.12 0.06 67 1010.6
20260506175034 54 13 0.0 3.0 0.00 0.12 0.06 66 1010.4
20260506174548 54 0 0.0 3.0 0.00 0.12 0.06 66 1010.2
20260506174036 54 0 0.0 2.0 0.00 0.12 0.06 65 1010.1
20260506173534 55 0 0.0 2.0 0.00 0.12 0.06 64 1010.1
20260506173049 55 0 0.0 2.0 0.00 0.12 0.06 64 1010.0
20260506172534 55 0 0.0 2.0 0.00 0.12 0.06 63 1010.1
20260506172034 55 0 0.0 3.0 0.00 0.12 0.06 63 1010.0
20260506171550 55 0 0.0 4.0 0.00 0.12 0.06 62 1009.8
20260506171035 55 0 0.0 4.0 0.00 0.12 0.06 62 1009.7
20260506170534 56 5 0.0 2.0 0.00 0.12 0.06 62 1009.7
20260506170052 56 0 0.0 2.0 0.00 0.12 0.06 62 1009.7
20260506165534 56 350 0.0 2.0 0.00 0.12 0.06 63 1009.6
20260506165037 57 348 0.0 2.0 0.00 0.12 0.06 62 1009.6
20260506164601 57 346 0.0 2.0 0.00 0.12 0.06 63 1009.5
20260506164035 57 0 0.0 3.0 0.00 0.12 0.06 64 1009.4
20260506163537 57 285 0.0 3.0 0.00 0.12 0.06 65 1009.5
20260506163056 57 0 0.0 2.0 0.00 0.12 0.06 65 1009.4
20260506162537 57 0 0.0 2.0 0.00 0.12 0.06 65 1009.4
20260506162034 57 0 0.0 2.0 0.00 0.12 0.06 66 1009.4
20260506161546 57 0 0.0 2.0 0.00 0.12 0.06 66 1009.4
20260506161034 57 0 0.0 3.0 0.00 0.12 0.06 65 1009.3
20260506160534 57 0 0.0 3.0 0.00 0.12 0.06 65 1009.2
20260506160056 57 5 0.0 3.0 0.00 0.12 0.06 64 1009.3
20260506155534 57 32 0.0 3.0 0.00 0.13 0.06 64 1009.1
20260506155034 58 0 0.0 3.0 0.00 0.13 0.06 64 1009.2
20260506154552 58 53 0.0 2.0 0.00 0.13 0.06 64 1009.1
20260506154037 58 0 0.0 2.0 0.00 0.13 0.06 64 1009.2
20260506153534 58 0 0.0 1.0 0.00 0.13 0.06 63 1009.2
20260506153048 58 0 0.0 2.0 0.00 0.13 0.06 64 1009.2
20260506152533 58 0 0.0 3.0 0.00 0.13 0.06 63 1009.1
20260506152036 58 0 0.0 3.0 0.00 0.13 0.06 62 1009.1
20260506151553 58 340 0.0 2.0 0.00 0.13 0.06 62 1009.1
20260506151033 58 0 0.0 2.0 0.00 0.13 0.06 63 1009.0
20260506150533 58 0 0.0 2.0 0.00 0.13 0.06 63 1009.0
20260506150100 58 0 0.0 2.0 0.00 0.13 0.06 62 1009.0
20260506145554 58 0 0.0 1.0 0.00 0.13 0.06 62 1009.0
20260506145035 58 53 0.0 2.0 0.00 0.13 0.06 62 1009.0
20260506144541 58 0 0.0 2.0 0.00 0.13 0.06 63 1009.0
20260506144035 58 58 0.0 2.0 0.00 0.13 0.06 63 1008.9
20260506143534 58 0 0.0 2.0 0.00 0.13 0.06 63 1008.8
20260506143043 58 0 0.0 2.0 0.00 0.13 0.06 62 1008.8
20260506142533 58 0 0.0 2.0 0.00 0.13 0.06 62 1008.9
20260506142035 58 19 0.0 2.0 0.00 0.13 0.06 63 1008.8
20260506141544 58 0 0.0 2.0 0.00 0.13 0.06 63 1008.9
20260506141037 59 0 0.0 2.0 0.00 0.13 0.06 63 1008.8
20260506140535 59 0 0.0 2.0 0.00 0.13 0.06 63 1008.8
20260506140041 59 0 0.0 3.0 0.00 0.13 0.06 63 1008.9
20260506135536 59 0 0.0 3.0 0.00 0.13 0.06 65 1009.0
20260506135036 59 0 0.0 2.0 0.00 0.13 0.06 67 1009.1
20260506134551 58 0 0.0 2.0 0.00 0.13 0.06 66 1009.1
20260506134036 58 38 0.0 2.0 0.00 0.13 0.06 67 1009.0
20260506133535 58 0 0.0 2.0 0.00 0.13 0.06 67 1009.1
20260506133101 58 34 0.0 2.0 0.00 0.13 0.06 67 1009.1
20260506132534 57 0 0.0 2.0 0.00 0.13 0.06 67 1009.1
20260506132034 57 0 0.0 1.0 0.00 0.13 0.06 68 1009.1
20260506131547 57 0 0.0 2.0 0.00 0.13 0.06 68 1009.0
20260506131034 57 0 0.0 2.0 0.00 0.13 0.06 68 1009.1
20260506130536 57 0 0.0 2.0 0.00 0.13 0.06 70 1009.1
20260506130043 57 0 0.0 2.0 0.00 0.13 0.06 70 1009.1
20260506125533 57 0 0.0 2.0 0.00 0.13 0.06 71 1009.1
20260506125033 57 0 0.0 2.0 0.00 0.13 0.06 72 1009.1
20260506124541 56 0 0.0 2.0 0.00 0.13 0.06 73 1009.0
20260506124033 56 0 0.0 1.0 0.00 0.13 0.06 73 1009.0
20260506123535 56 0 0.0 1.0 0.00 0.13 0.06 73 1009.0
20260506123043 56 0 0.0 2.0 0.00 0.13 0.06 73 1009.0
20260506122534 56 0 0.0 2.0 0.00 0.13 0.06 73 1009.0
20260506122038 56 0 0.0 3.0 0.00 0.13 0.06 73 1008.9
20260506121553 56 0 0.0 3.0 0.00 0.13 0.06 74 1009.1